TimeCST,TemperatureF,Dew PointF,Humidity,Sea Level PressureIn,VisibilityMPH,Wind Direction,Wind SpeedMPH,Gust SpeedMPH,PrecipitationIn,Events,Conditions,WindDirDegrees,DateUTC
12:19 AM,64.4,62.6,94,30.02,6.0,NE,4.6,-,N/A,,Overcast,50,2012-12-06 06:19:00
12:28 AM,64.4,62.6,94,30.02,7.0,NE,5.8,-,N/A,,Overcast,50,2012-12-06 06:28:00
12:53 AM,63.0,62.1,97,30.02,8.0,ENE,5.8,-,N/A,,Overcast,70,2012-12-06 06:53:00
1:53 AM,64.0,62.1,93,30.01,9.0,NE,5.8,-,N/A,,Overcast,50,2012-12-06 07:53:00
2:53 AM,63.0,61.0,93,30.00,6.0,ENE,4.6,-,N/A,,Mostly Cloudy,70,2012-12-06 08:53:00
3:13 AM,62.6,62.6,100,29.99,2.0,ENE,3.5,-,N/A,,Overcast,60,2012-12-06 09:13:00
3:17 AM,62.6,62.6,100,30.00,0.2,ENE,3.5,-,N/A,,Mist,60,2012-12-06 09:17:00
3:53 AM,62.1,62.1,100,30.00,0.1,Calm,Calm,-,N/A,Fog,Fog,0,2012-12-06 09:53:00
4:53 AM,62.1,61.0,96,30.00,0.1,NNE,3.5,-,N/A,Fog,Fog,20,2012-12-06 10:53:00
5:53 AM,63.0,61.0,93,30.01,0.1,NE,5.8,-,N/A,Fog,Fog,40,2012-12-06 11:53:00
6:53 AM,62.1,61.0,96,30.01,0.1,ENE,5.8,-,N/A,Fog,Fog,70,2012-12-06 12:53:00
7:53 AM,63.0,62.1,97,30.03,0.1,ENE,5.8,-,N/A,Fog,Fog,70,2012-12-06 13:53:00
8:44 AM,64.4,62.6,94,30.02,3.0,Calm,Calm,-,N/A,,Mostly Cloudy,0,2012-12-06 14:44:00
8:53 AM,64.0,63.0,96,30.03,4.0,Calm,Calm,-,N/A,,Mostly Cloudy,0,2012-12-06 14:53:00
9:24 AM,66.2,64.4,94,30.03,6.0,Calm,Calm,-,N/A,,Overcast,0,2012-12-06 15:24:00
9:44 AM,66.2,62.6,88,30.03,8.0,Calm,Calm,-,N/A,,Overcast,0,2012-12-06 15:44:00
9:53 AM,68.0,64.0,87,30.04,7.0,North,4.6,-,N/A,,Overcast,350,2012-12-06 15:53:00
10:21 AM,68.0,64.4,88,30.02,10.0,North,5.8,-,N/A,,Mostly Cloudy,10,2012-12-06 16:21:00
10:42 AM,68.0,62.6,83,30.01,10.0,NNE,5.8,-,N/A,,Mostly Cloudy,30,2012-12-06 16:42:00
10:53 AM,69.1,64.0,84,30.01,10.0,NNE,5.8,-,N/A,,Mostly Cloudy,20,2012-12-06 16:53:00
11:53 AM,72.0,64.9,78,29.98,10.0,NE,5.8,-,N/A,,Mostly Cloudy,50,2012-12-06 17:53:00
12:53 PM,72.0,63.0,73,29.96,10.0,East,8.1,-,N/A,,Mostly Cloudy,100,2012-12-06 18:53:00
1:29 PM,71.6,62.6,73,29.95,10.0,ESE,5.8,-,N/A,,Mostly Cloudy,120,2012-12-06 19:29:00
1:53 PM,71.1,61.0,70,29.95,10.0,ESE,9.2,-,N/A,,Mostly Cloudy,120,2012-12-06 19:53:00
2:53 PM,72.0,61.0,68,29.95,10.0,SE,9.2,-,0.00,,Mostly Cloudy,130,2012-12-06 20:53:00
3:53 PM,72.0,61.0,68,29.95,10.0,ESE,9.2,-,N/A,,Mostly Cloudy,120,2012-12-06 21:53:00
4:53 PM,71.1,62.1,73,29.94,10.0,ESE,4.6,-,N/A,,Mostly Cloudy,120,2012-12-06 22:53:00
5:53 PM,68.0,62.1,81,29.95,10.0,SSE,4.6,-,N/A,,Overcast,150,2012-12-06 23:53:00
6:11 PM,68.0,62.6,83,29.94,10.0,SSE,3.5,-,N/A,,Scattered Clouds,150,2012-12-07 00:11:00
6:53 PM,66.2,60.8,83,29.95,10.0,ESE,3.5,-,N/A,,Scattered Clouds,120,2012-12-07 00:53:00
7:53 PM,66.0,61.0,84,29.97,10.0,SE,3.5,-,N/A,,Scattered Clouds,130,2012-12-07 01:53:00
8:53 PM,64.0,61.0,90,29.97,10.0,SE,4.6,-,N/A,,Partly Cloudy,140,2012-12-07 02:53:00
9:53 PM,64.9,61.0,87,29.97,10.0,SE,4.6,-,N/A,,Partly Cloudy,130,2012-12-07 03:53:00
10:53 PM,63.0,60.1,90,29.96,10.0,SE,3.5,-,N/A,,Partly Cloudy,130,2012-12-07 04:53:00
11:53 PM,63.0,60.1,90,29.95,10.0,SE,3.5,-,N/A,,Partly Cloudy,140,2012-12-07 05:53:00